Climatologie pour Saint-Brevin les Pins
Jour • Résumé pour mai 2, 2017 Système :  Métrique    Anglais   Mixte
« - 1 jour
+ 1 jour »
Jour Semaine Mois Année Personnalisé
  Maximum : Minimum : Moyenne :
Température sous abri : 16.4 °C 8.7 °C 12.5 °C
Point de rosée : 12.4 °C 7.6 °C 9.9 °C
Humidité : 95 % 66 % 84 %
Vitesse du vent : 20.9 km/h 0.0 km/h 6.2 km/h
Rafale : 29.0 km/h - -
Direction :- - WNW
Pression : 1019.5 hPa 1013.8 hPa -
Précipitations : 0.5 mm    
Historical Graphs
 
 
Tableau de données pour mai 2, 2017
Heure Tempé Pt rosée Pression Vent Vitesse Rafale Humidité Taux pluie (/hr) Soleil
00:00 11.1 °C 8.7 °C 1013.8 hPa West 12.9 km/h 22.5 km/h 85 % 0.0 mm 0 W/m2
00:10 11.1 °C 8.7 °C 1013.8 hPa WNW 4.8 km/h 16.1 km/h 85 % 0.0 mm 0 W/m2
00:15 11.1 °C 8.7 °C 1013.8 hPa WNW 14.5 km/h 22.5 km/h 85 % 0.0 mm 0 W/m2
00:20 11.1 °C 8.7 °C 1013.8 hPa WNW 12.9 km/h 22.5 km/h 85 % 0.0 mm 0 W/m2
00:25 11.1 °C 8.5 °C 1013.8 hPa West 6.4 km/h 20.9 km/h 84 % 0.0 mm 0 W/m2
00:30 11.2 °C 8.6 °C 1013.8 hPa West 3.2 km/h 22.5 km/h 84 % 0.0 mm 0 W/m2
00:35 11.2 °C 8.6 °C 1013.8 hPa WNW 11.3 km/h 22.5 km/h 84 % 0.0 mm 0 W/m2
00:40 11.2 °C 8.4 °C 1013.8 hPa WNW 4.8 km/h 24.1 km/h 83 % 0.0 mm 0 W/m2
00:45 11.2 °C 8.4 °C 1013.8 hPa WNW 9.7 km/h 29.0 km/h 83 % 0.0 mm 0 W/m2
00:55 11.2 °C 8.6 °C 1013.8 hPa WNW 8.0 km/h 19.3 km/h 84 % 0.0 mm 0 W/m2
01:00 11.2 °C 8.6 °C 1013.8 hPa WNW 8.0 km/h 20.9 km/h 84 % 0.0 mm 0 W/m2
01:05 11.2 °C 8.4 °C 1013.8 hPa NW 14.5 km/h 22.5 km/h 83 % 0.0 mm 0 W/m2
01:10 11.2 °C 8.3 °C 1013.8 hPa WNW 6.4 km/h 22.5 km/h 82 % 0.0 mm 0 W/m2
01:15 11.2 °C 8.2 °C 1013.8 hPa NW 8.0 km/h 22.5 km/h 82 % 0.0 mm 0 W/m2
01:20 11.1 °C 8.3 °C 1013.8 hPa NW 12.9 km/h 20.9 km/h 83 % 0.0 mm 0 W/m2
01:25 11.2 °C 8.2 °C 1013.8 hPa NW 3.2 km/h 22.5 km/h 82 % 0.0 mm 0 W/m2
01:30 11.1 °C 8.3 °C 1013.8 hPa WNW 4.8 km/h 22.5 km/h 83 % 0.0 mm 0 W/m2
01:35 11.1 °C 8.2 °C 1013.8 hPa WNW 12.9 km/h 22.5 km/h 82 % 0.0 mm 0 W/m2
01:40 11.1 °C 8.3 °C 1013.8 hPa NW 11.3 km/h 25.7 km/h 83 % 0.0 mm 0 W/m2
01:45 10.9 °C 8.3 °C 1014.1 hPa NW 6.4 km/h 25.7 km/h 84 % 0.0 mm 0 W/m2
01:50 10.8 °C 8.4 °C 1013.8 hPa NW 6.4 km/h 17.7 km/h 85 % 0.0 mm 0 W/m2
01:55 10.6 °C 8.4 °C 1013.8 hPa West 9.7 km/h 17.7 km/h 86 % 0.0 mm 0 W/m2
02:00 10.6 °C 8.3 °C 1013.8 hPa WNW 4.8 km/h 17.7 km/h 86 % 0.0 mm 0 W/m2
02:05 10.6 °C 8.5 °C 1013.8 hPa West 11.3 km/h 17.7 km/h 87 % 0.0 mm 0 W/m2
02:10 10.5 °C 8.4 °C 1013.8 hPa NNW 9.7 km/h 16.1 km/h 87 % 0.0 mm 0 W/m2
02:15 10.5 °C 8.4 °C 1013.8 hPa NW 8.0 km/h 20.9 km/h 87 % 0.0 mm 0 W/m2
02:20 10.4 °C 8.5 °C 1013.8 hPa NW 12.9 km/h 20.9 km/h 88 % 0.0 mm 0 W/m2
02:25 10.4 °C 8.5 °C 1013.8 hPa NW 6.4 km/h 17.7 km/h 88 % 0.0 mm 0 W/m2
02:30 10.4 °C 8.7 °C 1013.8 hPa NNW 8.0 km/h 16.1 km/h 89 % 0.0 mm 0 W/m2
02:35 10.3 °C 8.6 °C 1013.8 hPa WNW 9.7 km/h 22.5 km/h 89 % 0.3 mm 0 W/m2
02:40 10.3 °C 8.6 °C 1013.8 hPa WNW 4.8 km/h 22.5 km/h 89 % 0.3 mm 0 W/m2
02:45 10.3 °C 8.6 °C 1013.8 hPa NNW 9.7 km/h 19.3 km/h 89 % 0.3 mm 0 W/m2
02:50 10.3 °C 8.7 °C 1013.8 hPa NNW 4.8 km/h 19.3 km/h 90 % 0.3 mm 0 W/m2
02:55 10.3 °C 8.7 °C 1013.8 hPa WNW 6.4 km/h 19.3 km/h 90 % 0.3 mm 0 W/m2
03:00 10.3 °C 8.7 °C 1013.8 hPa WNW 6.4 km/h 14.5 km/h 90 % 0.3 mm 0 W/m2
03:05 10.3 °C 8.8 °C 1013.8 hPa WNW 8.0 km/h 17.7 km/h 90 % 0.3 mm 0 W/m2
03:10 10.4 °C 8.8 °C 1013.8 hPa NW 8.0 km/h 20.9 km/h 90 % 0.3 mm 0 W/m2
03:15 10.4 °C 8.7 °C 1013.8 hPa NW 6.4 km/h 22.5 km/h 89 % 0.3 mm 0 W/m2
03:20 10.4 °C 8.7 °C 1013.8 hPa WNW 12.9 km/h 22.5 km/h 89 % 0.3 mm 0 W/m2
03:25 10.4 °C 8.9 °C 1013.8 hPa West 3.2 km/h 17.7 km/h 90 % 0.3 mm 0 W/m2
03:30 10.4 °C 8.9 °C 1013.8 hPa WNW 9.7 km/h 19.3 km/h 90 % 0.3 mm 0 W/m2
03:35 10.4 °C 8.9 °C 1013.8 hPa WNW 4.8 km/h 24.1 km/h 90 % 0.0 mm 0 W/m2
03:40 10.4 °C 8.8 °C 1013.8 hPa NNW 11.3 km/h 24.1 km/h 90 % 0.0 mm 0 W/m2
03:45 10.4 °C 8.8 °C 1013.8 hPa WNW 12.9 km/h 22.5 km/h 90 % 0.0 mm 0 W/m2
03:50 10.3 °C 8.9 °C 1013.8 hPa NW 6.4 km/h 22.5 km/h 91 % 0.0 mm 0 W/m2
03:55 10.3 °C 8.9 °C 1013.8 hPa NNW 12.9 km/h 20.9 km/h 91 % 0.0 mm 0 W/m2
04:00 10.3 °C 8.9 °C 1013.8 hPa NNW 9.7 km/h 20.9 km/h 91 % 0.3 mm 0 W/m2
04:05 10.3 °C 8.9 °C 1013.8 hPa NW 6.4 km/h 20.9 km/h 91 % 0.3 mm 0 W/m2
04:10 10.2 °C 8.8 °C 1013.8 hPa West 6.4 km/h 19.3 km/h 91 % 0.3 mm 0 W/m2
04:15 10.2 °C 8.8 °C 1014.1 hPa West 6.4 km/h 17.7 km/h 91 % 0.3 mm 0 W/m2
04:20 10.2 °C 8.8 °C 1014.1 hPa NNW 6.4 km/h 20.9 km/h 91 % 0.3 mm 0 W/m2
04:25 10.2 °C 8.8 °C 1014.1 hPa WNW 6.4 km/h 20.9 km/h 91 % 0.3 mm 0 W/m2
04:30 10.2 °C 8.8 °C 1014.1 hPa WNW 6.4 km/h 19.3 km/h 91 % 0.3 mm 0 W/m2
04:35 10.2 °C 8.8 °C 1014.1 hPa NNW 6.4 km/h 17.7 km/h 91 % 0.3 mm 0 W/m2
04:40 10.2 °C 8.8 °C 1014.1 hPa NW 12.9 km/h 20.9 km/h 91 % 0.3 mm 0 W/m2
04:45 10.3 °C 8.9 °C 1014.1 hPa WNW 12.9 km/h 20.9 km/h 91 % 0.3 mm 0 W/m2
04:50 10.3 °C 8.9 °C 1014.1 hPa NNW 3.2 km/h 16.1 km/h 91 % 0.3 mm 0 W/m2
04:55 10.3 °C 8.9 °C 1014.4 hPa NNW 9.7 km/h 17.7 km/h 91 % 0.3 mm 0 W/m2
05:00 10.3 °C 8.9 °C 1014.4 hPa WNW 4.8 km/h 17.7 km/h 91 % 0.0 mm 0 W/m2
05:05 10.2 °C 8.7 °C 1014.1 hPa WNW 4.8 km/h 16.1 km/h 90 % 0.0 mm 0 W/m2
05:10 10.1 °C 8.5 °C 1014.1 hPa West 6.4 km/h 14.5 km/h 90 % 0.0 mm 0 W/m2
05:15 10.1 °C 8.7 °C 1014.1 hPa West 6.4 km/h 14.5 km/h 91 % 0.0 mm 0 W/m2
05:20 10.1 °C 8.5 °C 1014.1 hPa WNW 6.4 km/h 16.1 km/h 90 % 0.0 mm 0 W/m2
05:25 9.9 °C 8.4 °C 1014.1 hPa WNW 8.0 km/h 16.1 km/h 90 % 0.0 mm 0 W/m2
05:30 9.8 °C 8.4 °C 1014.1 hPa NW 8.0 km/h 16.1 km/h 91 % 0.0 mm 0 W/m2
05:35 9.8 °C 8.4 °C 1014.1 hPa NW 3.2 km/h 12.9 km/h 91 % 0.0 mm 0 W/m2
05:40 9.8 °C 8.4 °C 1014.4 hPa WNW 8.0 km/h 12.9 km/h 91 % 0.0 mm 0 W/m2
05:45 9.9 °C 8.5 °C 1014.4 hPa WNW 1.6 km/h 14.5 km/h 91 % 0.0 mm 0 W/m2
05:50 9.8 °C 8.4 °C 1014.1 hPa NW 11.3 km/h 14.5 km/h 91 % 0.0 mm 0 W/m2
05:55 9.8 °C 8.4 °C 1014.1 hPa West 9.7 km/h 11.3 km/h 91 % 0.0 mm 0 W/m2
06:05 9.6 °C 8.2 °C 1014.4 hPa NNW 6.4 km/h 16.1 km/h 91 % 0.0 mm 0 W/m2
06:10 9.5 °C 8.1 °C 1014.4 hPa NW 9.7 km/h 16.1 km/h 91 % 0.0 mm 0 W/m2
06:15 9.4 °C 8.0 °C 1014.4 hPa WNW 3.2 km/h 14.5 km/h 91 % 0.0 mm 0 W/m2
06:20 9.3 °C 8.1 °C 1014.4 hPa West 9.7 km/h 14.5 km/h 92 % 0.0 mm 0 W/m2
06:25 9.3 °C 8.0 °C 1014.8 hPa NW 3.2 km/h 14.5 km/h 92 % 0.0 mm 0 W/m2
06:30 9.1 °C 7.8 °C 1014.8 hPa NW 4.8 km/h 14.5 km/h 92 % 0.0 mm 0 W/m2
06:35 8.9 °C 7.7 °C 1014.8 hPa NNW 9.7 km/h 12.9 km/h 92 % 0.0 mm 0 W/m2
06:40 8.8 °C 7.6 °C 1014.8 hPa NW 3.2 km/h 11.3 km/h 92 % 0.0 mm 0 W/m2
06:45 8.8 °C 7.7 °C 1014.8 hPa NW 1.6 km/h 9.7 km/h 93 % 0.0 mm 0 W/m2
06:50 8.7 °C 7.6 °C 1015.1 hPa NW 1.6 km/h 9.7 km/h 93 % 0.0 mm 0 W/m2
06:55 8.7 °C 7.7 °C 1015.1 hPa NW 3.2 km/h 9.7 km/h 93 % 0.0 mm 0 W/m2
07:00 8.7 °C 7.8 °C 1015.1 hPa WNW 6.4 km/h 9.7 km/h 94 % 0.0 mm 5 W/m2
07:05 8.8 °C 7.9 °C 1015.1 hPa WNW 4.8 km/h 11.3 km/h 94 % 0.0 mm 5 W/m2
07:10 8.8 °C 7.9 °C 1015.1 hPa WNW 1.6 km/h 11.3 km/h 94 % 0.0 mm 7 W/m2
07:15 8.8 °C 7.9 °C 1015.5 hPa WNW 3.2 km/h 8.0 km/h 94 % 0.0 mm 12 W/m2
07:20 8.7 °C 7.8 °C 1015.1 hPa WNW 1.6 km/h 8.0 km/h 94 % 0.0 mm 16 W/m2
07:25 8.7 °C 7.8 °C 1015.5 hPa WNW 1.6 km/h 11.3 km/h 94 % 0.0 mm 21 W/m2
07:30 8.8 °C 7.9 °C 1015.5 hPa Calm   11.3 km/h 94 % 0.0 mm 28 W/m2
07:35 9.1 °C 8.3 °C 1015.5 hPa WNW 1.6 km/h 9.7 km/h 95 % 0.0 mm 14 W/m2
07:40 9.4 °C 8.6 °C 1015.5 hPa WNW 9.7 km/h 9.7 km/h 95 % 0.0 mm 14 W/m2
07:45 9.6 °C 8.8 °C 1015.5 hPa NNW 4.8 km/h 9.7 km/h 95 % 0.0 mm 21 W/m2
07:50 9.7 °C 8.8 °C 1015.5 hPa Calm   9.7 km/h 94 % 0.0 mm 35 W/m2
07:55 9.9 °C 9.0 °C 1015.5 hPa Calm   8.0 km/h 94 % 0.0 mm 49 W/m2
08:00 9.9 °C 9.0 °C 1015.8 hPa NW 3.2 km/h 8.0 km/h 94 % 0.0 mm 67 W/m2
08:05 10.0 °C 9.1 °C 1015.8 hPa WNW 4.8 km/h 9.7 km/h 94 % 0.0 mm 62 W/m2
08:10 10.0 °C 8.9 °C 1015.8 hPa NW 6.4 km/h 9.7 km/h 93 % 0.0 mm 77 W/m2
08:15 10.1 °C 9.0 °C 1015.8 hPa NW 4.8 km/h 11.3 km/h 93 % 0.0 mm 88 W/m2
08:20 10.3 °C 9.2 °C 1015.8 hPa WNW 4.8 km/h 11.3 km/h 93 % 0.0 mm 97 W/m2
08:25 10.4 °C 9.3 °C 1015.8 hPa NW 6.4 km/h 11.3 km/h 93 % 0.0 mm 109 W/m2
08:30 10.6 °C 9.3 °C 1015.8 hPa NW 1.6 km/h 12.9 km/h 92 % 0.0 mm 220 W/m2
08:35 10.8 °C 9.5 °C 1015.8 hPa NW 3.2 km/h 12.9 km/h 92 % 0.0 mm 237 W/m2
08:40 10.9 °C 9.5 °C 1016.1 hPa NW 6.4 km/h 11.3 km/h 91 % 0.0 mm 241 W/m2
08:45 11.1 °C 9.6 °C 1016.1 hPa WNW 9.7 km/h 9.7 km/h 91 % 0.0 mm 281 W/m2
08:50 11.2 °C 9.6 °C 1016.1 hPa NW 1.6 km/h 12.9 km/h 90 % 0.0 mm 176 W/m2
08:55 11.3 °C 9.8 °C 1016.1 hPa NNW 6.4 km/h 12.9 km/h 90 % 0.0 mm 253 W/m2
09:00 11.3 °C 9.6 °C 1016.5 hPa NW 9.7 km/h 11.3 km/h 89 % 0.0 mm 160 W/m2
09:05 11.6 °C 9.8 °C 1016.5 hPa Calm   11.3 km/h 89 % 0.0 mm 322 W/m2
09:10 11.7 °C 9.7 °C 1016.5 hPa East 3.2 km/h 9.7 km/h 88 % 0.0 mm 338 W/m2
09:15 11.9 °C 10.0 °C 1016.5 hPa NNW 8.0 km/h 12.9 km/h 88 % 0.0 mm 385 W/m2
09:20 12.0 °C 9.9 °C 1016.5 hPa NW 3.2 km/h 12.9 km/h 87 % 0.0 mm 385 W/m2
09:25 12.2 °C 10.1 °C 1016.5 hPa North 4.8 km/h 12.9 km/h 87 % 0.0 mm 376 W/m2
09:30 12.1 °C 9.8 °C 1016.5 hPa NW 3.2 km/h 16.1 km/h 86 % 0.0 mm 334 W/m2
09:35 12.3 °C 10.2 °C 1016.5 hPa WNW 6.4 km/h 16.1 km/h 87 % 0.0 mm 410 W/m2
09:40 12.4 °C 10.1 °C 1016.5 hPa WNW 1.6 km/h 11.3 km/h 86 % 0.0 mm 418 W/m2
09:45 12.7 °C 10.4 °C 1016.5 hPa NNW 3.2 km/h 12.9 km/h 86 % 0.0 mm 436 W/m2
09:50 12.8 °C 10.2 °C 1016.5 hPa NNW 8.0 km/h 12.9 km/h 84 % 0.0 mm 441 W/m2
09:55 13.1 °C 10.6 °C 1016.5 hPa NW 1.6 km/h 11.3 km/h 85 % 0.0 mm 464 W/m2
10:00 13.2 °C 10.3 °C 1016.8 hPa Calm   11.3 km/h 83 % 0.0 mm 485 W/m2
10:05 13.2 °C 10.4 °C 1016.8 hPa WNW 4.8 km/h 11.3 km/h 83 % 0.0 mm 496 W/m2
10:10 13.6 °C 10.5 °C 1016.8 hPa NW 3.2 km/h 11.3 km/h 82 % 0.0 mm 508 W/m2
10:15 13.6 °C 10.8 °C 1016.8 hPa WNW 6.4 km/h 12.9 km/h 83 % 0.0 mm 534 W/m2
10:20 13.3 °C 10.1 °C 1016.8 hPa Calm   12.9 km/h 81 % 0.0 mm 534 W/m2
10:25 13.7 °C 10.6 °C 1016.8 hPa NNW 4.8 km/h 11.3 km/h 82 % 0.0 mm 568 W/m2
10:30 14.0 °C 10.8 °C 1016.8 hPa NW 12.9 km/h 12.9 km/h 81 % 0.0 mm 432 W/m2
10:35 13.4 °C 10.0 °C 1016.8 hPa NW 3.2 km/h 12.9 km/h 80 % 0.0 mm 248 W/m2
10:40 13.6 °C 10.5 °C 1016.8 hPa Calm   12.9 km/h 82 % 0.0 mm 248 W/m2
10:45 13.5 °C 10.1 °C 1016.8 hPa Calm   12.9 km/h 80 % 0.0 mm 183 W/m2
10:50 13.8 °C 10.4 °C 1016.8 hPa North 8.0 km/h 12.9 km/h 80 % 0.0 mm 733 W/m2
10:55 14.6 °C 11.0 °C 1016.8 hPa WNW 3.2 km/h 12.9 km/h 79 % 0.0 mm 689 W/m2
11:00 14.9 °C 11.3 °C 1016.8 hPa Calm   11.3 km/h 79 % 0.0 mm 675 W/m2
11:05 15.0 °C 11.0 °C 1016.8 hPa NW 8.0 km/h 12.9 km/h 77 % 0.0 mm 754 W/m2
11:10 14.3 °C 9.7 °C 1016.8 hPa North 3.2 km/h 14.5 km/h 74 % 0.0 mm 156 W/m2
11:15 14.8 °C 11.0 °C 1017.2 hPa NNE 4.8 km/h 14.5 km/h 78 % 0.0 mm 756 W/m2
11:20 15.4 °C 11.4 °C 1017.2 hPa North 8.0 km/h 12.9 km/h 77 % 0.0 mm 795 W/m2
11:25 15.1 °C 10.9 °C 1017.2 hPa NW 3.2 km/h 14.5 km/h 76 % 0.0 mm 209 W/m2
11:30 14.5 °C 10.3 °C 1017.2 hPa NW 1.6 km/h 14.5 km/h 76 % 0.0 mm 120 W/m2
11:35 14.3 °C 10.5 °C 1017.2 hPa Calm   11.3 km/h 78 % 0.0 mm 795 W/m2
11:40 14.9 °C 10.3 °C 1017.2 hPa NNE 4.8 km/h 9.7 km/h 74 % 0.0 mm 819 W/m2
11:45 15.1 °C 10.7 °C 1017.2 hPa Calm   11.3 km/h 75 % 0.0 mm 220 W/m2
11:50 14.6 °C 10.0 °C 1017.2 hPa West 1.6 km/h 11.3 km/h 74 % 0.0 mm 179 W/m2
11:55 14.8 °C 11.2 °C 1017.2 hPa NW 8.0 km/h 11.3 km/h 79 % 0.0 mm 858 W/m2
12:00 15.6 °C 10.5 °C 1017.2 hPa NW 4.8 km/h 14.5 km/h 72 % 0.0 mm 837 W/m2
12:05 15.8 °C 11.4 °C 1017.2 hPa WNW 3.2 km/h 14.5 km/h 75 % 0.0 mm 819 W/m2
12:10 15.9 °C 10.6 °C 1017.2 hPa Calm   9.7 km/h 71 % 0.0 mm 817 W/m2
12:15 16.1 °C 10.4 °C 1017.2 hPa NNE 6.4 km/h 12.9 km/h 69 % 0.0 mm 837 W/m2
12:20 16.2 °C 10.7 °C 1017.2 hPa West 3.2 km/h 12.9 km/h 70 % 0.0 mm 888 W/m2
12:25 15.4 °C 10.4 °C 1017.2 hPa WNW 6.4 km/h 12.9 km/h 72 % 0.0 mm 186 W/m2
12:30 15.7 °C 10.6 °C 1017.2 hPa West 6.4 km/h 11.3 km/h 72 % 0.0 mm 914 W/m2
12:35 15.8 °C 9.4 °C 1017.2 hPa NW 3.2 km/h 11.3 km/h 66 % 0.0 mm 158 W/m2
12:40 14.9 °C 9.2 °C 1017.2 hPa West 6.4 km/h 11.3 km/h 69 % 0.0 mm 160 W/m2
12:45 15.4 °C 9.6 °C 1017.2 hPa West 1.6 km/h 9.7 km/h 68 % 0.0 mm 865 W/m2
12:50 15.4 °C 10.4 °C 1017.2 hPa WNW 3.2 km/h 12.9 km/h 72 % 0.0 mm 239 W/m2
12:55 15.2 °C 10.8 °C 1017.2 hPa West 6.4 km/h 16.1 km/h 75 % 0.0 mm 221 W/m2
13:00 15.1 °C 11.1 °C 1017.2 hPa West 8.0 km/h 17.7 km/h 77 % 0.0 mm 311 W/m2
13:05 15.5 °C 11.3 °C 1017.5 hPa WSW 11.3 km/h 17.7 km/h 76 % 0.0 mm 390 W/m2
13:10 14.6 °C 10.0 °C 1017.5 hPa West 11.3 km/h 17.7 km/h 74 % 0.0 mm 151 W/m2
13:15 14.1 °C 10.3 °C 1017.5 hPa West 12.9 km/h 17.7 km/h 78 % 0.0 mm 116 W/m2
13:20 13.7 °C 10.3 °C 1017.5 hPa WNW 11.3 km/h 19.3 km/h 80 % 0.0 mm 144 W/m2
13:25 13.6 °C 10.5 °C 1017.5 hPa West 3.2 km/h 19.3 km/h 82 % 0.0 mm 211 W/m2
13:30 13.8 °C 10.8 °C 1017.5 hPa WNW 6.4 km/h 14.5 km/h 82 % 0.0 mm 302 W/m2
13:35 14.1 °C 10.9 °C 1017.5 hPa WSW 4.8 km/h 14.5 km/h 81 % 0.0 mm 355 W/m2
13:40 14.2 °C 11.0 °C 1017.5 hPa WSW 4.8 km/h 14.5 km/h 81 % 0.0 mm 274 W/m2
13:45 14.9 °C 11.7 °C 1017.5 hPa WNW 3.2 km/h 14.5 km/h 81 % 0.0 mm 1005 W/m2
13:50 16.0 °C 12.2 °C 1017.5 hPa WSW 12.9 km/h 14.5 km/h 78 % 0.0 mm 930 W/m2
13:55 16.4 °C 12.4 °C 1017.5 hPa West 11.3 km/h 17.7 km/h 77 % 0.0 mm 506 W/m2
14:00 15.3 °C 11.1 °C 1017.5 hPa West 6.4 km/h 22.5 km/h 76 % 0.0 mm 352 W/m2
14:05 14.7 °C 11.1 °C 1017.5 hPa WNW 3.2 km/h 22.5 km/h 79 % 0.0 mm 311 W/m2
14:10 14.6 °C 11.1 °C 1017.5 hPa WNW 6.4 km/h 19.3 km/h 80 % 0.0 mm 345 W/m2
14:15 14.9 °C 11.3 °C 1017.5 hPa WSW 16.1 km/h 20.9 km/h 79 % 0.0 mm 925 W/m2
14:20 15.2 °C 11.4 °C 1017.5 hPa WSW 12.9 km/h 20.9 km/h 78 % 0.0 mm 976 W/m2
14:25 15.6 °C 11.5 °C 1017.5 hPa West 14.5 km/h 25.7 km/h 77 % 0.0 mm 1125 W/m2
14:30 15.7 °C 11.0 °C 1017.5 hPa West 17.7 km/h 25.7 km/h 74 % 0.0 mm 429 W/m2
14:35 15.3 °C 11.7 °C 1017.5 hPa West 14.5 km/h 24.1 km/h 79 % 0.0 mm 998 W/m2
14:40 16.1 °C 12.2 °C 1017.5 hPa West 6.4 km/h 22.5 km/h 78 % 0.0 mm 1104 W/m2
14:45 16.1 °C 11.6 °C 1017.5 hPa West 8.0 km/h 22.5 km/h 75 % 0.0 mm 420 W/m2
14:50 14.8 °C 10.8 °C 1017.8 hPa West 12.9 km/h 25.7 km/h 77 % 0.0 mm 455 W/m2
14:55 14.7 °C 10.7 °C 1017.8 hPa West 8.0 km/h 25.7 km/h 77 % 0.0 mm 330 W/m2
15:00 14.3 °C 10.5 °C 1017.8 hPa West 9.7 km/h 22.5 km/h 78 % 0.0 mm 304 W/m2
15:05 14.1 °C 10.3 °C 1017.8 hPa WSW 6.4 km/h 22.5 km/h 78 % 0.0 mm 281 W/m2
15:10 15.2 °C 11.6 °C 1017.8 hPa SW 6.4 km/h 22.5 km/h 79 % 0.0 mm 1028 W/m2
15:15 15.4 °C 11.0 °C 1017.8 hPa WSW 14.5 km/h 22.5 km/h 75 % 0.0 mm 403 W/m2
15:20 15.7 °C 11.4 °C 1017.8 hPa WSW 11.3 km/h 19.3 km/h 76 % 0.0 mm 373 W/m2
15:25 14.8 °C 10.6 °C 1017.8 hPa WNW 17.7 km/h 22.5 km/h 76 % 0.0 mm 248 W/m2
15:30 14.6 °C 10.6 °C 1017.8 hPa West 3.2 km/h 22.5 km/h 77 % 0.0 mm 378 W/m2
15:35 14.8 °C 11.0 °C 1017.8 hPa WNW 6.4 km/h 22.5 km/h 78 % 0.0 mm 489 W/m2
15:40 14.8 °C 10.4 °C 1017.8 hPa West 19.3 km/h 24.1 km/h 75 % 0.0 mm 492 W/m2
15:45 15.0 °C 10.4 °C 1017.8 hPa WNW 16.1 km/h 25.7 km/h 74 % 0.0 mm 506 W/m2
15:50 14.9 °C 10.1 °C 1018.2 hPa West 8.0 km/h 25.7 km/h 73 % 0.0 mm 339 W/m2
15:55 15.1 °C 10.9 °C 1018.2 hPa West 4.8 km/h 22.5 km/h 76 % 0.0 mm 229 W/m2
16:00 14.7 °C 10.7 °C 1018.2 hPa West 8.0 km/h 19.3 km/h 77 % 0.0 mm 218 W/m2
16:05 14.4 °C 10.8 °C 1018.2 hPa WSW 9.7 km/h 19.3 km/h 79 % 0.0 mm 283 W/m2
16:10 14.5 °C 10.7 °C 1018.2 hPa West 8.0 km/h 22.5 km/h 78 % 0.0 mm 181 W/m2
16:15 14.3 °C 10.9 °C 1018.2 hPa NW 14.5 km/h 22.5 km/h 80 % 0.0 mm 195 W/m2
16:20 14.2 °C 11.0 °C 1018.2 hPa West 9.7 km/h 20.9 km/h 81 % 0.0 mm 248 W/m2
16:30 14.8 °C 11.4 °C 1018.2 hPa West 9.7 km/h 22.5 km/h 80 % 0.0 mm 334 W/m2
16:35 15.0 °C 11.8 °C 1018.2 hPa NW 9.7 km/h 24.1 km/h 81 % 0.0 mm 547 W/m2
16:40 15.2 °C 11.7 °C 1018.2 hPa West 14.5 km/h 24.1 km/h 80 % 0.0 mm 816 W/m2
16:45 15.1 °C 11.9 °C 1018.2 hPa West 1.6 km/h 20.9 km/h 81 % 0.0 mm 441 W/m2
16:50 15.7 °C 11.8 °C 1018.2 hPa SW 4.8 km/h 20.9 km/h 78 % 0.0 mm 332 W/m2
16:55 14.9 °C 11.1 °C 1018.2 hPa WSW 12.9 km/h 19.3 km/h 78 % 0.0 mm 350 W/m2
17:00 14.9 °C 11.3 °C 1017.8 hPa SSW 4.8 km/h 19.3 km/h 79 % 0.0 mm 388 W/m2
17:05 14.9 °C 11.1 °C 1018.2 hPa WNW 12.9 km/h 19.3 km/h 78 % 0.0 mm 251 W/m2
17:10 14.7 °C 11.1 °C 1017.8 hPa West 9.7 km/h 17.7 km/h 79 % 0.0 mm 227 W/m2
17:15 14.6 °C 10.4 °C 1018.2 hPa WSW 8.0 km/h 20.9 km/h 76 % 0.0 mm 213 W/m2
17:20 14.4 °C 10.6 °C 1018.2 hPa WNW 20.9 km/h 20.9 km/h 78 % 0.0 mm 197 W/m2
17:25 14.2 °C 10.6 °C 1018.2 hPa West 19.3 km/h 20.9 km/h 79 % 0.0 mm 197 W/m2
17:30 14.1 °C 10.5 °C 1018.2 hPa WSW 6.4 km/h 20.9 km/h 79 % 0.0 mm 197 W/m2
17:35 14.2 °C 10.8 °C 1018.2 hPa SW 4.8 km/h 22.5 km/h 80 % 0.0 mm 248 W/m2
17:40 14.5 °C 11.1 °C 1018.2 hPa SW 8.0 km/h 22.5 km/h 80 % 0.0 mm 243 W/m2
17:45 14.6 °C 11.0 °C 1018.2 hPa WNW 8.0 km/h 22.5 km/h 79 % 0.0 mm 262 W/m2
17:50 14.7 °C 11.1 °C 1018.2 hPa West 8.0 km/h 22.5 km/h 79 % 0.0 mm 262 W/m2
17:55 14.8 °C 11.8 °C 1018.2 hPa NW 6.4 km/h 22.5 km/h 82 % 0.0 mm 645 W/m2
18:00 15.1 °C 11.4 °C 1018.2 hPa WNW 9.7 km/h 24.1 km/h 79 % 0.0 mm 271 W/m2
18:05 14.9 °C 11.5 °C 1017.8 hPa WNW 17.7 km/h 24.1 km/h 80 % 0.0 mm 461 W/m2
18:10 14.8 °C 11.4 °C 1018.2 hPa WNW 8.0 km/h 24.1 km/h 80 % 0.0 mm 406 W/m2
18:15 14.7 °C 11.1 °C 1018.2 hPa WSW 16.1 km/h 24.1 km/h 79 % 0.0 mm 265 W/m2
18:20 14.6 °C 11.1 °C 1018.2 hPa WSW 4.8 km/h 24.1 km/h 80 % 0.0 mm 506 W/m2
18:25 15.0 °C 11.6 °C 1018.2 hPa West 9.7 km/h 24.1 km/h 80 % 0.0 mm 475 W/m2
18:30 15.0 °C 11.4 °C 1018.2 hPa WNW 8.0 km/h 24.1 km/h 79 % 0.0 mm 304 W/m2
18:35 14.9 °C 11.5 °C 1018.2 hPa West 12.9 km/h 24.1 km/h 80 % 0.0 mm 438 W/m2
18:40 14.8 °C 11.4 °C 1018.2 hPa WSW 8.0 km/h 24.1 km/h 80 % 0.0 mm 171 W/m2
18:45 14.4 °C 11.0 °C 1018.2 hPa WNW 6.4 km/h 22.5 km/h 80 % 0.0 mm 151 W/m2
18:50 14.2 °C 11.0 °C 1018.2 hPa WNW 8.0 km/h 22.5 km/h 81 % 0.0 mm 181 W/m2
18:55 14.2 °C 11.2 °C 1018.2 hPa WNW 11.3 km/h 22.5 km/h 82 % 0.0 mm 146 W/m2
19:00 14.2 °C 11.3 °C 1018.2 hPa WNW 6.4 km/h 20.9 km/h 83 % 0.0 mm 155 W/m2
19:05 14.1 °C 11.3 °C 1018.2 hPa WSW 4.8 km/h 20.9 km/h 83 % 0.0 mm 130 W/m2
19:15 14.1 °C 11.6 °C 1018.2 hPa West 3.2 km/h 19.3 km/h 85 % 0.0 mm 95 W/m2
19:20 14.1 °C 11.6 °C 1018.2 hPa NW 3.2 km/h 19.3 km/h 85 % 0.0 mm 100 W/m2
19:25 14.2 °C 11.7 °C 1018.2 hPa West 6.4 km/h 14.5 km/h 85 % 0.0 mm 151 W/m2
19:30 14.4 °C 11.8 °C 1018.2 hPa NW 11.3 km/h 14.5 km/h 84 % 0.0 mm 128 W/m2
19:35 14.6 °C 11.4 °C 1018.2 hPa West 11.3 km/h 16.1 km/h 81 % 0.0 mm 139 W/m2
19:40 14.7 °C 11.3 °C 1018.2 hPa West 4.8 km/h 16.1 km/h 80 % 0.0 mm 148 W/m2
19:45 14.8 °C 11.2 °C 1018.2 hPa WNW 6.4 km/h 14.5 km/h 79 % 0.0 mm 171 W/m2
19:50 15.0 °C 11.0 °C 1018.2 hPa WNW 4.8 km/h 14.5 km/h 77 % 0.0 mm 264 W/m2
19:55 15.2 °C 11.7 °C 1018.5 hPa WNW 6.4 km/h 14.5 km/h 80 % 0.0 mm 178 W/m2
20:00 15.0 °C 11.8 °C 1018.2 hPa West 8.0 km/h 11.3 km/h 81 % 0.0 mm 183 W/m2
20:05 15.0 °C 12.0 °C 1018.5 hPa WSW 1.6 km/h 9.7 km/h 82 % 0.0 mm 127 W/m2
20:10 14.8 °C 11.8 °C 1018.5 hPa West 6.4 km/h 9.7 km/h 82 % 0.0 mm 97 W/m2
20:15 14.6 °C 11.5 °C 1018.5 hPa Calm   9.7 km/h 82 % 0.0 mm 74 W/m2
20:20 14.3 °C 11.3 °C 1018.5 hPa Calm   9.7 km/h 82 % 0.0 mm 65 W/m2
20:25 14.2 °C 11.3 °C 1018.5 hPa West 6.4 km/h 9.7 km/h 83 % 0.0 mm 58 W/m2
20:30 13.9 °C 10.9 °C 1018.5 hPa Calm   11.3 km/h 82 % 0.0 mm 53 W/m2
20:35 13.8 °C 10.8 °C 1018.5 hPa WNW 1.6 km/h 11.3 km/h 82 % 0.0 mm 47 W/m2
20:45 13.4 °C 10.6 °C 1018.5 hPa WNW 1.6 km/h 11.3 km/h 83 % 0.0 mm 32 W/m2
20:50 13.4 °C 10.8 °C 1018.5 hPa WNW 3.2 km/h 11.3 km/h 84 % 0.0 mm 26 W/m2
20:55 13.3 °C 10.7 °C 1018.5 hPa West 6.4 km/h 8.0 km/h 84 % 0.0 mm 21 W/m2
21:00 13.2 °C 10.4 °C 1018.5 hPa WNW 6.4 km/h 9.7 km/h 83 % 0.0 mm 16 W/m2
21:10 12.8 °C 10.1 °C 1018.8 hPa Calm   8.0 km/h 84 % 0.0 mm 9 W/m2
21:15 12.7 °C 10.2 °C 1018.8 hPa Calm   4.8 km/h 85 % 0.0 mm 5 W/m2
21:20 12.5 °C 10.2 °C 1018.8 hPa Calm   4.8 km/h 86 % 0.0 mm 0 W/m2
21:25 12.3 °C 10.2 °C 1018.8 hPa Calm   4.8 km/h 87 % 0.0 mm 0 W/m2
21:30 12.2 °C 10.2 °C 1018.8 hPa Calm   4.8 km/h 88 % 0.0 mm 0 W/m2
21:35 12.2 °C 10.2 °C 1018.8 hPa Calm   1.6 km/h 88 % 0.0 mm 0 W/m2
21:40 12.1 °C 10.1 °C 1018.8 hPa Calm   1.6 km/h 88 % 0.0 mm 0 W/m2
21:45 11.9 °C 10.1 °C 1019.2 hPa Calm   1.6 km/h 89 % 0.0 mm 0 W/m2
21:50 11.8 °C 10.2 °C 1019.2 hPa WNW 3.2 km/h 4.8 km/h 90 % 0.0 mm 0 W/m2
21:55 11.8 °C 10.4 °C 1019.2 hPa Calm   4.8 km/h 91 % 0.0 mm 0 W/m2
22:00 11.8 °C 10.4 °C 1019.2 hPa Calm   3.2 km/h 91 % 0.0 mm 0 W/m2
22:05 11.8 °C 10.4 °C 1019.2 hPa NNW 1.6 km/h 6.4 km/h 91 % 0.0 mm 0 W/m2
22:10 11.8 °C 10.4 °C 1019.2 hPa NNW 1.6 km/h 6.4 km/h 91 % 0.0 mm 0 W/m2
22:15 11.9 °C 10.3 °C 1019.2 hPa Calm   6.4 km/h 90 % 0.0 mm 0 W/m2
22:20 11.9 °C 10.3 °C 1019.2 hPa Calm   6.4 km/h 90 % 0.0 mm 0 W/m2
22:25 11.9 °C 10.3 °C 1019.2 hPa Calm   3.2 km/h 90 % 0.0 mm 0 W/m2
22:30 11.9 °C 10.1 °C 1019.2 hPa NW 1.6 km/h 6.4 km/h 89 % 0.0 mm 0 W/m2
22:35 11.8 °C 10.1 °C 1019.5 hPa NW 1.6 km/h 6.4 km/h 89 % 0.0 mm 0 W/m2
22:40 11.8 °C 10.1 °C 1019.5 hPa Calm   4.8 km/h 89 % 0.0 mm 0 W/m2
22:45 11.9 °C 10.0 °C 1019.5 hPa NW 4.8 km/h 4.8 km/h 88 % 0.0 mm 0 W/m2
22:50 11.8 °C 9.9 °C 1019.2 hPa WNW 1.6 km/h 6.4 km/h 88 % 0.0 mm 0 W/m2
22:55 11.8 °C 9.9 °C 1019.5 hPa WNW 4.8 km/h 8.0 km/h 88 % 0.0 mm 0 W/m2
23:00 11.8 °C 9.7 °C 1019.2 hPa WNW 1.6 km/h 8.0 km/h 87 % 0.0 mm 0 W/m2
23:05 11.6 °C 9.5 °C 1019.5 hPa WNW 1.6 km/h 9.7 km/h 87 % 0.0 mm 0 W/m2
23:10 11.3 °C 9.4 °C 1019.2 hPa NW 1.6 km/h 9.7 km/h 88 % 0.0 mm 0 W/m2
23:15 10.8 °C 9.1 °C 1019.2 hPa Calm   8.0 km/h 89 % 0.0 mm 0 W/m2
23:20 10.6 °C 9.1 °C 1019.2 hPa Calm   4.8 km/h 91 % 0.0 mm 0 W/m2
23:25 10.4 °C 9.0 °C 1019.2 hPa Calm   1.6 km/h 91 % 0.0 mm 0 W/m2
23:30 10.2 °C 8.8 °C 1019.2 hPa Calm   1.6 km/h 91 % 0.0 mm 0 W/m2
23:35 10.2 °C 8.9 °C 1019.5 hPa Calm   1.6 km/h 92 % 0.0 mm 0 W/m2
23:40 10.1 °C 8.8 °C 1019.5 hPa Calm   1.6 km/h 92 % 0.0 mm 0 W/m2
23:45 9.8 °C 8.6 °C 1019.5 hPa Calm   1.6 km/h 92 % 0.0 mm 0 W/m2
23:50 9.8 °C 8.8 °C 1019.5 hPa Calm   1.6 km/h 93 % 0.0 mm 0 W/m2
23:55 9.9 °C 8.8 °C 1019.5 hPa Calm   1.6 km/h 93 % 0.0 mm 0 W/m2
Avec l'autorisation de Weather Underground - 1.75 mb